[[{"header":{"parameterUnit":"m.s-1","parameterCategory":1,"la1":30.2991,"la2":30.254,"lo1":-89.0895,"lo2":-89.0444,"dy":0.0017,"dx":0.0017,"nx":28,"ny":28,"refTime":"2025-03-25T03:00:00:Z","depth":0,"parameterNumber":2,"parameterNumberName":"U-component_of_WINDS"},"data":[0,0,0,0,0,0,0,0,0,0,0,0,0,0,0,0,0,0,0,0,0,0,0,0,0,0,0,0,0,0,0,0,0,0,0,0,0,0,0,0,0,0,0,0,0,0,0,0,0,0,0,0,0,0,0,0,0,0,0.9993,0.9995,0,1.0147,1.0149,1.0151,1.016,1.0158,1.0156,1.0155,1.0316,1.0322,1.0328,0,0,0,0,0,0,0,0,0,0,0,0,0,0.971,0.9715,0.9993,0.9995,0.9997,1.0147,1.0149,1.0151,1.016,1.0158,1.0156,1.0154,1.0314,1.0321,1.0328,0,0,0,0,0,0,0,0,0,0,0,0,0,0.9845,0.9716,0.9993,1.002,1.0023,1.0146,1.0149,1.0152,1.0161,1.0158,1.0155,1.0153,1.0312,1.032,1.0329,1.0437,0,0,1.0356,1.036,0,0,0,0,0,0,0,0,0.9837,0.9856,1.0014,1.0018,1.0023,1.0132,1.0108,1.0248,1.0161,1.0109,1.0155,1.0152,1.0257,1.027,1.0305,1.0445,1.0451,1.0357,1.0362,1.0366,1.0369,0,0,0,0,0,0,0,0.9828,0.9849,1.0054,1.0016,1.0021,1.0025,1.0041,1.0135,1.0196,1.0113,1.0114,1.0132,1.0259,1.0296,1.0309,1.0454,1.0357,1.0365,1.037,1.0374,1.0688,1.0691,0,0,0,0,0,0,0.9813,0.9841,1.0049,1.0059,0.9921,1.0032,1.005,1.0099,1.0195,1.0207,1.0134,1.0132,1.0282,1.0298,1.0315,1.0446,1.0366,1.0375,1.038,1.0685,1.0689,1.0692,0,0,0,0,0,0,0.9807,0.9832,1.0043,0.995,0.9977,1.0039,1.0095,1.0104,1.0141,1.0211,1.0222,1.0161,1.0281,1.0302,1.0406,1.0452,1.0379,1.0387,1.0682,1.0686,1.0691,1.0711,0,0,0,0,0,0,0.9799,0.9829,0.9871,0.9951,0.9982,1.0131,1.0098,1.0109,1.0156,1.0155,1.0239,1.025,1.0281,1.0392,1.0415,1.0463,1.0394,1.0678,1.0684,1.0689,1.0706,1.0715,1.0723,0,0,0,0,0,0.9789,0.9871,0.9873,0.9898,1.0035,1.0134,1.0152,1.0184,1.016,1.0202,1.0246,1.0248,1.0443,1.0403,1.0428,1.048,1.0675,1.0682,1.0689,1.0703,1.0714,1.0723,0,0,0,0,0,0,0.9796,0.9882,0.9885,0.9996,1.0057,1.0135,1.019,1.0195,1.0266,1.0261,1.0299,1.0318,1.0421,1.0461,1.0415,1.0588,1.0557,1.0569,1.0558,1.057,1.0578,1.0566,1.0401,0,0,0,0,0,0.9811,0.9883,0.9955,1.0046,1.0076,1.0127,1.0172,1.0191,1.0257,1.0283,1.0335,1.04,1.0475,1.0525,1.0599,1.0712,1.073,1.076,1.0768,1.0775,1.0785,1.0847,1.086,1.0714,1.0714,1.0714,0,0,0.9842,0.9898,0.9941,1.0049,1.0099,1.0173,1.015,1.023,1.0285,1.0296,1.0396,1.0437,1.0511,1.062,1.067,1.0656,1.0829,1.0783,1.0788,1.0795,1.0855,1.0869,1.0881,1.0719,1.0718,1.0717,0,0,0.9936,0.9986,1.0066,1.0116,1.0191,1.0224,1.0244,1.0321,1.0347,1.0448,1.0457,1.0524,1.0655,1.0707,1.075,1.0862,1.0866,1.0885,1.093,1.0989,1.1001,1.1011,1.105,1.1064,1.0895,1.0895,1.0895,0,0.9965,1.0077,1.0107,1.0187,1.0234,1.0244,1.0326,1.0374,1.047,1.0502,1.0484,1.0647,1.0698,1.0818,1.0845,1.088,1.0903,1.0876,1.0997,1.1007,1.1017,1.1055,1.107,1.0897,1.0897,1.0897,1.0896,0,1.0109,1.0186,1.0242,1.0332,1.0385,1.0466,1.0509,1.0559,1.0573,1.0608,1.0711,1.0772,1.0857,1.0887,1.0903,1.101,1.0999,1.0989,1.0957,1.1033,1.1069,1.1083,1.09,1.0899,1.0898,1.0898,0,0,1.0213,1.0318,1.0338,1.0378,1.0461,1.0522,1.0602,1.0684,1.0726,1.0792,1.086,1.0969,1.0959,1.1009,1.103,1.1082,1.1166,1.1066,1.1068,1.1082,1.1286,1.1293,1.1309,1.1168,1.1171,1.1174,1.128,0,1.0316,1.0458,1.0488,1.0611,1.0682,1.0693,1.0763,1.0822,1.0856,1.0922,1.0961,1.1037,1.1019,1.1049,1.1101,1.1144,1.1207,1.1137,1.1233,1.1236,1.1213,1.1328,1.1336,1.1433,1.1294,1.1296,1.1298,0,1.0456,1.0522,1.0652,1.0724,1.0755,1.0817,1.0894,1.0957,1.1023,1.1045,1.1099,1.1114,1.1198,1.1162,1.1278,1.123,1.1271,1.1298,1.1302,1.1312,1.1271,1.1341,1.1465,1.1479,1.1321,1.1319,1.1317,0,1.0518,1.064,1.0733,1.0768,1.0854,1.0897,1.0936,1.0999,1.1046,1.1114,1.1144,1.1221,1.1263,1.1322,1.1358,1.1328,1.1471,1.1439,1.1491,1.149,1.1521,1.1519,1.1653,1.1548,1.1548,1.1547,1.1547,0,1.0629,1.0708,1.0762,1.082,1.0908,1.0941,1.1028,1.1066,1.1122,1.1187,1.1201,1.1262,1.1305,1.1372,1.1401,1.1492,1.1511,1.1531,1.1537,1.1529,1.1527,1.1557,1.1551,1.1551,1.155,1.155,1.1549,0,1.0714,1.0753,1.0855,1.0928,1.0948,1.101,1.1072,1.1128,1.1162,1.1244,1.1265,1.1319,1.1399,1.1439,1.1539,1.1558,1.166,1.1663,1.1638,1.164,1.169,1.1684,1.1848,1.1871,1.1751,1.1752,1.1753,0,1.0782,1.0843,1.0921,1.0965,1.1004,1.1075,1.1122,1.1156,1.1205,1.1284,1.1331,1.141,1.1476,1.1602,1.165,1.1726,1.1731,1.1783,1.1742,1.1732,1.1731,1.1726,1.1732,1.179,1.1791,1.1792,1.1793,0,1.0899,1.0915,1.0982,1.1056,1.1112,1.1172,1.1231,1.1266,1.131,1.1364,1.1445,1.1495,1.1596,1.1674,1.1753,1.1793,1.1801,1.1805,1.1821,1.1813,1.1795,1.1805,1.1656,1.1801,1.18,1.18,1.1799,1.1799,1.0978,1.1032,1.1094,1.1168,1.1216,1.1271,1.1326,1.1366,1.1434,1.1517,1.1533,1.1618,1.1682,1.1788,1.183,1.1898,1.1887,1.191,1.1916,1.1921,1.1923,1.1785,1.1912,1.1912,1.1912,1.1912,1.1912,0,1.1095,1.1135,1.1203,1.1284,1.1342,1.1342,1.1407,1.1456,1.153,1.1588,1.1652,1.1743,1.1819,1.1873,1.195,1.1993,1.1998,1.2012,1.2009,1.2018,1.1929,1.1907,1.2007,1.2007,1.2007,1.2007,1.2007,1.2007,1.1163,1.1253,1.1276,1.139,1.1431,1.1513,1.155,1.16,1.1646,1.1747,1.181,1.1844,1.19,1.1981,1.205,1.2064,1.2092,1.2106,1.2119,1.2035,1.2025,1.2015,1.1994,1.2111,1.2112,1.2203,1.2204,1.2205]},{"header":{"parameterUnit":"m.s-1","parameterCategory":1,"la1":30.2991,"la2":30.254,"lo1":-89.0895,"lo2":-89.0444,"dy":0.0017,"dx":0.0017,"nx":28,"ny":28,"refTime":"2025-03-25T03:00:00:Z","depth":0,"parameterNumber":3,"parameterNumberName":"V-component_of_WINDS"},"data":[0,0,0,0,0,0,0,0,0,0,0,0,0,0,0,0,0,0,0,0,0,0,0,0,0,0,0,0,0,0,0,0,0,0,0,0,0,0,0,0,0,0,0,0,0,0,0,0,0,0,0,0,0,0,0,0,0,0,1.4375,1.4376,0,1.4404,1.4404,1.4404,1.4428,1.4429,1.4429,1.4429,1.4455,1.4456,1.4456,0,0,0,0,0,0,0,0,0,0,0,0,0,1.4336,1.4337,1.4375,1.4376,1.4376,1.4404,1.4404,1.4405,1.4428,1.4429,1.4429,1.4429,1.4455,1.4456,1.4456,0,0,0,0,0,0,0,0,0,0,0,0,0,1.4358,1.4337,1.4375,1.4391,1.4393,1.4404,1.4404,1.4405,1.4428,1.4429,1.4429,1.4429,1.4455,1.4456,1.4456,1.4452,0,0,1.4458,1.4459,0,0,0,0,0,0,0,0,1.4357,1.4359,1.4389,1.439,1.4392,1.4413,1.44,1.4421,1.4428,1.4415,1.4429,1.443,1.4441,1.4443,1.4447,1.4454,1.4455,1.4458,1.4459,1.4459,1.4459,0,0,0,0,0,0,0,1.4355,1.4358,1.4387,1.4389,1.4391,1.4395,1.4399,1.4404,1.4425,1.4416,1.4418,1.4421,1.4442,1.4446,1.4448,1.4455,1.4458,1.4459,1.4459,1.446,1.4456,1.4456,0,0,0,0,0,0,1.4352,1.4357,1.4386,1.4387,1.4375,1.4396,1.44,1.4406,1.4425,1.4428,1.4421,1.4422,1.4445,1.4447,1.4449,1.4443,1.4459,1.446,1.446,1.4456,1.4456,1.4455,0,0,0,0,0,0,1.4351,1.4354,1.4384,1.4373,1.4377,1.4396,1.4403,1.4406,1.4411,1.4429,1.4432,1.4422,1.4445,1.4448,1.4451,1.4445,1.446,1.4461,1.4457,1.4456,1.4456,1.4434,0,0,0,0,0,0,1.435,1.4354,1.4354,1.4372,1.4377,1.4388,1.4403,1.4407,1.4412,1.4414,1.4431,1.4434,1.4446,1.445,1.4451,1.4446,1.4461,1.4458,1.4457,1.4456,1.4435,1.4432,1.443,0,0,0,0,0,1.4348,1.4347,1.4354,1.4357,1.4378,1.4387,1.439,1.4405,1.4412,1.4411,1.4422,1.4433,1.4445,1.445,1.4452,1.4446,1.4458,1.4457,1.4456,1.4436,1.4433,1.443,0,0,0,0,0,0,1.4327,1.435,1.4358,1.4363,1.4373,1.4391,1.4391,1.4401,1.4409,1.4411,1.4428,1.4431,1.4431,1.4439,1.4444,1.4442,1.4453,1.4452,1.4437,1.4434,1.4431,1.4429,1.4462,0,0,0,0,0,1.4323,1.433,1.4348,1.4351,1.4355,1.4372,1.4377,1.4387,1.4398,1.4402,1.4414,1.4423,1.4428,1.4431,1.4438,1.4436,1.4438,1.4433,1.443,1.4428,1.4427,1.4423,1.4421,1.4452,1.4452,1.4452,0,0,1.4314,1.4328,1.4331,1.4347,1.4356,1.4361,1.4376,1.4381,1.4384,1.4403,1.4406,1.4414,1.4425,1.4425,1.4425,1.4431,1.4419,1.4427,1.4425,1.4425,1.4422,1.4419,1.4416,1.4451,1.4451,1.4451,0,0,1.4302,1.4313,1.4315,1.4323,1.4337,1.4347,1.4347,1.4364,1.437,1.4373,1.4387,1.4389,1.4399,1.4406,1.441,1.4395,1.4405,1.4397,1.4383,1.438,1.4377,1.4375,1.4368,1.4365,1.4396,1.4396,1.4396,0,1.4289,1.4299,1.4315,1.4318,1.4323,1.434,1.4341,1.4348,1.4362,1.4364,1.4371,1.4381,1.439,1.439,1.4386,1.439,1.4389,1.4395,1.4377,1.4375,1.4373,1.4366,1.4363,1.4395,1.4395,1.4395,1.4395,0,1.4281,1.4287,1.4287,1.43,1.4305,1.4307,1.4321,1.4324,1.4333,1.4342,1.4343,1.4354,1.4361,1.4362,1.4371,1.4362,1.4365,1.4374,1.4385,1.4368,1.4362,1.436,1.4393,1.4393,1.4394,1.4394,0,0,1.4259,1.4278,1.4278,1.4283,1.4297,1.4301,1.4302,1.4309,1.431,1.4318,1.4318,1.4324,1.4332,1.4337,1.4346,1.4343,1.4327,1.4352,1.4352,1.4345,1.4315,1.4307,1.4304,1.4333,1.4333,1.4333,1.4313,0,1.4247,1.4252,1.4264,1.4264,1.4268,1.4282,1.4282,1.429,1.4297,1.43,1.4308,1.4311,1.4322,1.4324,1.4322,1.433,1.4321,1.4331,1.4331,1.4331,1.4327,1.4301,1.4294,1.4276,1.4311,1.4311,1.431,0,1.4236,1.4242,1.4242,1.4253,1.4255,1.4256,1.4262,1.4265,1.4272,1.4277,1.4281,1.4291,1.429,1.43,1.4298,1.4304,1.4305,1.4308,1.4308,1.4308,1.4319,1.4299,1.427,1.4267,1.4307,1.4307,1.4307,0,1.4217,1.4226,1.4226,1.423,1.4243,1.4243,1.4248,1.4256,1.4258,1.4262,1.4263,1.4267,1.4269,1.4271,1.428,1.4288,1.4276,1.4288,1.4278,1.4278,1.4275,1.4275,1.4245,1.4277,1.4277,1.4277,1.4277,0,1.4203,1.4202,1.4218,1.4218,1.4216,1.4229,1.4226,1.4232,1.4238,1.4238,1.425,1.4249,1.4262,1.4262,1.4269,1.4264,1.4265,1.4268,1.427,1.4267,1.4266,1.4267,1.4268,1.4276,1.4277,1.4277,1.4277,0,1.4182,1.4193,1.4194,1.4205,1.4208,1.4206,1.4215,1.4214,1.4221,1.422,1.4221,1.4231,1.4231,1.424,1.4243,1.4247,1.4238,1.4243,1.4236,1.4237,1.4227,1.4227,1.4195,1.419,1.4226,1.4226,1.4226,0,1.4173,1.4172,1.4182,1.4183,1.4188,1.4189,1.4191,1.4202,1.4203,1.4209,1.4207,1.4208,1.421,1.4208,1.4215,1.4215,1.4219,1.4208,1.422,1.4215,1.4217,1.4216,1.4215,1.4205,1.4205,1.4205,1.4204,0,1.4154,1.4158,1.4161,1.4164,1.4166,1.4169,1.4173,1.4173,1.4184,1.4184,1.4185,1.4185,1.4186,1.4186,1.4187,1.419,1.4198,1.42,1.4198,1.4194,1.4189,1.419,1.4228,1.4201,1.4201,1.4202,1.4202,1.4202,1.4138,1.4136,1.4143,1.4144,1.4148,1.415,1.4149,1.4155,1.4155,1.4157,1.4163,1.4161,1.4164,1.4167,1.4168,1.4166,1.4171,1.4168,1.4167,1.4166,1.4163,1.419,1.4166,1.4166,1.4166,1.4166,1.4166,0,1.4118,1.4122,1.4123,1.4127,1.4127,1.4134,1.4138,1.4137,1.4136,1.4138,1.4139,1.4136,1.4135,1.414,1.4139,1.4135,1.4139,1.4135,1.4135,1.4134,1.4159,1.4161,1.4132,1.4132,1.4132,1.4132,1.4132,1.4132,1.4108,1.4105,1.4109,1.4107,1.411,1.4109,1.411,1.4111,1.4113,1.411,1.4109,1.4112,1.4114,1.4113,1.4111,1.4112,1.411,1.4104,1.4107,1.413,1.4133,1.4136,1.4138,1.4104,1.4104,1.4082,1.4082,1.4082]}]]